Location: Green Island
(42.7442°N, 73.6915°W)
Time: 05:25:54
(UTC+00:00)

Daily predictions for brighter satellites

Satellite Brightness Start Highest point End
(mag) Time Altitude Azimuth Time Altitude Azimuth Time Altitude Azimuth
ISS -0.8 00:01:19 10° WNW 00:02:03 15° WNW 00:02:03 15° WNW
SL-16 R/B 3.2 00:01:52 10° NNW 00:05:04 34° N 00:05:04 34° N
USA 267 4.5 00:07:36 26° N 00:08:53 28° NNW 00:14:14 10° WNW
Cosmos 2082 Rocket 3.9 00:04:10 10° WSW 00:09:03 29° NW 00:11:58 19° N
ATLAS 5 CENTAUR R/B 4.1 00:06:15 10° NW 00:08:17 20° NW 00:08:17 20° NW
CZ-2C R/B 4.2 00:19:25 10° SW 00:19:38 11° SW 00:19:38 11° SW
Lacrosse 5 rocket 4.2 00:18:42 10° NW 00:18:55 11° NW 00:18:55 11° NW
CENTAUR R/B 3.4 08:51:34 43° NE 08:51:34 43° NE 08:56:09 10° NE
Cosmos 1943 Rocket 3.8 08:53:41 27° NE 08:53:41 27° NE 08:56:09 10° NNE
NOSS 3-2 (C) 3.7 09:13:27 57° NE 09:13:27 57° NE 09:18:29 10° NE
Cosmos 2344 3.6 09:14:06 56° NNW 09:14:06 56° NNW 09:20:50 10° NNE
Cosmos 1812 4.5 09:28:44 31° ENE 09:28:44 31° ENE 09:32:06 10° SE
Tsikada Rocket 3.8 09:27:14 10° S 09:33:26 84° W 09:39:45 10° N
SL-8 R/B 4.3 09:39:49 47° NNE 09:39:49 47° NNE 09:44:07 10° E
Meteor 2-3 Rocket 3.7 09:40:23 66° NNW 09:40:23 66° NNW 09:45:28 10° N
USA 238 DEB 3.6 09:40:07 59° NW 09:40:11 59° NW 09:46:58 10° NNE
USA 238 3.5 09:40:11 60° NW 09:40:18 60° NW 09:47:04 10° NNE
BREEZE-M DEB (TANK) 3.0 09:43:04 74° WNW 09:43:30 85° SSW 09:56:02 10° ESE
USA 215 3.8 09:41:21 10° ESE 09:47:37 52° NNE 09:50:34 31° NNW
Cosmos 1241 Rocket 4.3 09:49:45 58° W 09:50:32 63° WSW 09:56:37 10° SSE
Meteor 1-31 Rocket 3.9 09:48:03 10° NNE 09:51:47 44° E 09:55:31 10° S
Cosmos 921 Rocket 2.9 09:53:48 84° N 09:53:56 89° ENE 09:58:25 10° SSE
Cosmos 1782 4.4 09:57:34 24° S 09:57:34 24° S 09:59:13 10° S
Meteor 1-26 Rocket 4.2 09:56:03 36° NNW 09:58:24 65° W 10:04:03 10° S
Cosmos 2263 4.3 09:53:05 10° SSW 09:58:45 76° ESE 10:04:30 10° NNE
H-2A R/B 2.7 09:55:54 10° NNE 09:59:36 78° E 10:03:23 10° S
Cosmos 2208 Rocket 4.5 10:02:49 43° WSW 10:02:49 43° WSW 10:07:16 10° S
Cosmos 1867 4.2 10:03:11 36° SW 10:03:11 36° SW 10:07:28 10° S
Cosmos 1862 3.6 09:58:49 10° S 10:02:42 63° E 10:06:37 10° NNE
Okean 3 Rocket 4.0 10:00:22 10° S 10:04:51 64° E 10:09:22 10° NNE
Cosmos 1151 Rocket 3.0 10:05:51 25° N 10:08:22 84° E 10:12:44 10° S
Cosmos 1503 Rocket 4.4 10:03:39 10° S 10:08:50 65° ESE 10:14:08 10° NNE
Cosmos 2369 Rocket 2.1 10:05:54 20° SW 10:09:46 65° WNW 10:15:21 10° NNE
SL-19 R/B 4.2 10:06:54 10° S 10:12:27 64° WSW 10:16:12 21° NNW
SJ-12 3.8 10:09:10 10° N 10:13:18 72° WNW 10:17:24 10° SSW
Cosmos 1766 Rocket 3.4 10:09:34 10° S 10:13:54 90° SW 10:18:15 10° N
Meteor 2-13 Rocket 4.4 10:08:27 10° SSW 10:14:28 61° W 10:20:30 10° N
Cosmos 1486 Rocket 3.9 10:10:58 10° SSW 10:16:14 64° WNW 10:21:29 10° NNE
BREEZE M DEB (TANK) 3.8 10:21:35 29° NNW 10:21:38 29° NNW 10:23:59 10° NE
Cosmos 1328 Rocket 3.5 10:20:35 11° N 10:24:51 89° ENE 10:29:12 10° S
Cosmos 1656 Rocket 3.5 10:20:50 10° SW 10:26:12 66° WNW 10:31:37 10° NNE
Iridium 2 3.8 10:23:06 10° SSW 10:26:45 46° W 10:26:47 46° W
CZ-4B R/B 4.4 10:24:18 10° NNE 10:27:35 34° E 10:30:52 10° SSE
DNEPR-1 R/B 3.9 10:27:07 25° NW 10:30:04 86° WSW 10:35:56 10° SSE
COSMO-SKYMED 1 2.7 10:28:27 10° S 10:32:41 52° W 10:35:30 20° NNW
CZ-2C R/B 2.7 10:28:45 10° S 10:34:09 57° W 10:39:29 10° NNW
Cosmos 1943 Rocket 3.4 10:35:16 21° NW 10:35:16 21° NW 10:39:04 10° N
Envisat 3.2 10:34:52 10° N 10:39:42 45° WNW 10:44:31 10° SW
CENTAUR R/B 3.6 10:38:46 22° WNW 10:40:53 26° NNW 10:46:52 10° NNE
Cosmos 2098 Rocket 3.7 10:42:32 10° SW 10:46:06 33° WNW 10:50:30 10° N
Cosmos 1408 Rocket 3.4 10:43:48 10° S 10:48:06 83° W 10:52:26 10° N
DELTA 2 R/B (1) 3.9 10:47:14 14° WSW 10:51:52 61° S 10:57:20 10° E
Cosmos 1340 Rocket 3.5 10:49:39 10° S 10:53:30 57° E 10:57:25 10° NNE
Cosmos 2279 Rocket 4.2 10:47:59 10° NNW 10:53:53 48° W 10:59:47 10° SSW
Cosmos 1174 4.0 10:52:48 10° SSW 10:55:42 51° ESE 10:58:40 10° NE
SMAP 4.2 10:51:44 10° NNE 10:56:14 47° E 11:00:43 10° S
Cosmos 1743 Rocket 4.1 10:52:07 10° S 10:56:27 63° E 11:00:46 10° NNE
NOAA 11 4.1 10:55:08 10° N 11:00:35 68° WNW 11:06:01 10° SSW
Nadezhda 4 Rocket 3.9 10:56:10 10° S 11:02:19 81° W 11:08:35 10° N
Meteor 1-27 Rocket 3.8 10:56:46 10° N 11:02:27 90° S 11:08:13 10° S
CZ-4B R/B 3.2 11:00:33 10° SE 11:03:32 31° ENE 11:06:29 10° N
Cosmos 1812 4.2 11:03:50 17° W 11:04:09 17° W 11:06:42 10° SW
DMSP B5D1-3 4.5 10:59:20 10° S 11:04:28 77° WSW 11:09:39 10° NNW
Meteor 2-15 Rocket 4.4 10:58:58 10° N 11:05:03 77° W 11:11:05 10° S
Cosmos 1515 Rocket 3.6 11:02:20 10° NNW 11:06:38 59° W 11:10:54 10° S
Cosmos 1939 Rocket 3.0 11:03:12 10° NNE 11:07:09 77° ESE 11:11:01 10° S
ATLAS 3B R/B 3.0 11:02:02 10° SSW 11:08:29 70° ESE 11:15:14 10° NE
Cosmos 1354 Rocket 4.3 11:04:45 10° SW 11:09:47 45° WNW 11:14:54 10° N
SJ 16-02 1.3 11:06:17 10° SSW 11:10:39 82° WNW 11:15:03 10° NNE
Meteor PRIRODA 3.7 11:07:34 10° N 11:11:06 53° WNW 11:14:39 10° SSW
ADEOS 3.8 11:08:54 10° N 11:13:52 45° WNW 11:18:48 10° SW
Cosmos 1515 4.2 11:10:10 10° N 11:13:57 63° E 11:17:43 10° SSE
Cosmos 1092 Rocket 4.2 11:11:44 10° S 11:17:57 80° E 11:24:17 10° N
CZ-4C R/B 4.2 11:17:44 10° SW 11:20:04 19° W 11:22:17 11° NW
SL-8 R/B 3.8 11:17:47 12° WNW 11:22:12 68° SSW 11:26:56 10° SE
ATLAS 5 CENTAUR R/B 1.2 11:18:42 10° SW 11:22:29 72° NW 11:26:43 10° NNE
Cosmos 1500 Rocket 3.6 11:20:29 10° SSW 11:24:52 59° W 11:29:18 10° N
Meteor 1-31 Rocket 4.4 11:23:32 10° NNW 11:25:47 15° WNW 11:28:03 10° W
CZ-2C R/B 3.2 11:21:55 10° N 11:26:36 48° WNW 11:31:29 10° SW
Geosat FO 4.4 11:25:28 10° SSE 11:28:47 66° WSW 11:32:05 10° NNW
Okean 1 4.2 11:24:56 10° N 11:28:49 51° E 11:32:38 10° SSE
USA 215 3.6 11:24:14 10° SSE 11:30:36 54° SW 11:36:59 10° NW
Meteor 1-25 Rocket 4.3 11:26:01 10° S 11:31:39 89° WNW 11:37:16 10° N
COSMOS 2487 2.4 11:31:12 10° NNW 11:34:34 80° ENE 11:37:53 10° SSE
Sich 1 3.1 11:31:03 10° S 11:35:21 81° E 11:39:38 10° N
Cosmos 1805 Rocket 3.5 11:32:19 10° SSW 11:36:43 76° W 11:41:06 10° N
Alouette 2 Rocket 3.2 11:33:44 10° NNW 11:37:24 57° W 11:40:56 10° S
H-2A R/B 2.4 11:34:13 10° S 11:38:16 45° W 11:42:28 10° NNW
Cosmos 1538 Rocket 4.0 11:34:35 10° NNW 11:39:51 84° WSW 11:45:01 10° SSE
